Date String (YYYY-MM-DD hh:mm:ss) UTC,Instrument flags,Ambient pressure (hPa),Sample flow (lpm),Bypass flow (lpm),Sample temperature (°C),Ambient temperature (°C),ASC tube jacket temperature (°C),LED temperature (°C),Box temperature (°C),Sample RH (%),Span deviation,Mass concentration (μg/m³),Mass concentration (μg/m³),Mass concentration (μg/m³)
DateTimeUTC,F1_M11,P_M11,Q1_M11,Q2_M11,T1_M11,T2_M11,T3_M11,T4_M11,T5_M11,U1_M11,ZSPAN_M11,X0_M11,X2_M11,X1_M11
2022-07-24 18:00:00,,0831.4,5.00,0.00,31.0,28.5,00.0,39.3,32.2,33.7,-000.6,0013.37,0009.59,0008.88
2022-07-24 18:01:00,,0831.4,4.99,0.00,31.1,28.6,00.0,39.3,32.2,33.8,-000.6,0013.47,0009.59,0008.88
2022-07-24 18:02:00,,0831.5,5.00,0.00,31.1,28.8,00.0,39.3,32.2,33.7,-000.7,0013.38,0009.50,0008.81
2022-07-24 18:03:00,,0831.5,5.00,0.00,31.1,28.5,00.0,39.3,32.2,33.5,-000.6,0013.30,0009.43,0008.73
2022-07-24 18:04:00,,0831.4,5.01,0.00,31.1,27.8,00.0,39.2,32.1,33.9,-000.9,0013.10,0009.31,0008.62
2022-07-24 18:05:00,,0831.4,5.00,0.00,31.0,27.5,00.0,39.2,32.0,34.3,-001.2,0012.98,0009.22,0008.53
2022-07-24 18:06:00,,0831.3,4.99,0.00,30.9,27.5,00.0,39.2,31.9,34.1,-001.3,0013.86,0009.26,0008.57
2022-07-24 18:07:00,,0831.4,4.99,0.00,30.8,27.6,00.0,39.2,31.9,34.4,-001.3,0013.99,0009.34,0008.67
2022-07-24 18:08:00,,0831.3,5.01,0.00,30.8,27.7,00.0,39.3,31.9,34.8,-001.4,0014.11,0009.47,0008.81
2022-07-24 18:09:00,,0831.2,5.00,0.00,30.7,27.9,00.0,39.3,31.9,35.1,-001.4,0014.33,0009.55,0008.93
2022-07-24 18:10:00,,0831.2,5.02,0.00,30.8,28.1,00.0,39.3,32.0,34.9,-001.6,0015.05,0009.61,0008.99
2022-07-24 18:11:00,,0831.3,4.99,0.00,31.0,28.3,00.0,39.2,32.1,34.4,-001.8,0014.98,0009.61,0008.99
2022-07-24 18:12:00,,0831.3,5.00,0.00,31.1,28.4,00.0,39.3,32.2,33.9,-002.1,0015.13,0009.59,0008.96
2022-07-24 18:13:00,,0831.2,5.00,0.00,31.1,28.6,00.0,39.3,32.2,33.6,-002.0,0015.50,0009.66,0009.03
2022-07-24 18:14:00,,0831.2,5.00,0.00,31.2,28.7,00.0,39.3,32.2,33.4,-002.0,0016.11,0009.77,0009.14
2022-07-24 18:15:00,,0831.2,5.00,0.00,31.2,28.6,00.0,39.3,32.2,33.5,-001.9,0016.53,0009.90,0009.26
2022-07-24 18:16:00,,0831.2,5.00,0.00,31.2,28.0,00.0,39.3,32.2,33.5,-001.8,0016.78,0010.01,0009.31
2022-07-24 18:17:00,,0831.2,4.99,0.00,31.1,27.5,00.0,39.3,32.1,33.3,-001.7,0015.91,0010.03,0009.30
2022-07-24 18:18:00,,0831.2,5.01,0.00,31.0,27.3,00.0,39.3,32.0,33.6,-001.9,0016.02,0010.04,0009.27
2022-07-24 18:19:00,,0831.2,5.00,0.00,30.9,27.4,00.0,39.3,31.9,33.9,-001.9,0016.34,0010.02,0009.22
2022-07-24 18:20:00,,0831.2,5.02,0.00,30.9,27.6,00.0,39.3,31.9,34.5,-001.9,0016.19,0009.99,0009.17
2022-07-24 18:21:00,,0831.2,5.00,0.00,30.8,27.8,00.0,39.3,31.9,34.5,-001.6,0015.45,0009.95,0009.16
2022-07-24 18:22:00,,0831.2,4.99,0.00,30.8,28.0,00.0,39.3,31.9,34.3,-001.4,0015.28,0009.97,0009.20
2022-07-24 18:23:00,,0831.2,5.00,0.00,30.8,28.2,00.0,39.3,32.0,34.1,-000.7,0015.75,0010.01,0009.25
2022-07-24 18:24:00,,0831.1,5.00,0.00,30.7,28.4,00.0,39.3,32.0,33.8,-000.8,0015.60,0010.07,0009.28
2022-07-24 18:25:00,,0831.2,5.00,0.00,30.7,28.5,00.0,39.3,32.0,33.6,-000.7,0015.21,0010.12,0009.30
2022-07-24 18:26:00,,0831.1,5.00,0.00,30.7,28.7,00.0,39.3,32.1,33.4,-000.6,0014.93,0010.13,0009.30
2022-07-24 18:27:00,,0831.1,4.99,0.00,30.7,28.7,00.0,39.3,32.1,34.0,0000.0,0014.72,0010.05,0009.30
2022-07-24 18:28:00,,0831.2,5.00,0.00,30.7,28.2,00.0,39.2,32.1,33.4,0000.1,0014.57,0009.97,0009.26
2022-07-24 18:29:00,,0831.2,5.00,0.00,30.7,27.6,00.0,39.1,32.0,33.6,0000.5,0014.29,0009.88,0009.21
2022-07-24 18:30:00,,0831.2,5.01,0.00,30.6,27.4,00.0,39.1,31.9,33.8,0000.5,0013.94,0009.83,0009.18
2022-07-24 18:31:00,,0831.2,4.99,0.00,30.5,27.4,00.0,39.1,31.8,34.1,0000.5,0014.03,0009.84,0009.16
2022-07-24 18:32:00,,0831.2,5.01,0.00,30.4,27.6,00.0,39.1,31.7,34.1,0000.3,0014.33,0009.76,0009.08
2022-07-24 18:33:00,,0831.2,5.00,0.00,30.4,27.7,00.0,39.1,31.8,34.1,0000.4,0014.53,0009.69,0008.99
2022-07-24 18:34:00,,0831.2,5.00,0.00,30.4,27.9,00.0,39.1,31.8,33.9,0000.5,0013.78,0009.61,0008.89
2022-07-24 18:35:00,,0831.2,5.01,0.00,30.4,28.1,00.0,39.1,31.8,34.3,0000.5,0013.62,0009.47,0008.75
2022-07-24 18:36:00,,0831.2,4.99,0.00,30.3,28.3,00.0,39.0,31.9,34.1,0000.4,0013.58,0009.37,0008.63
2022-07-24 18:37:00,,0831.2,5.00,0.00,30.3,28.4,00.0,39.0,31.9,34.0,0000.5,0013.60,0009.29,0008.54
2022-07-24 18:38:00,,0831.2,4.99,0.00,30.4,28.6,00.0,39.0,32.0,34.1,0000.2,0013.65,0009.27,0008.49
2022-07-24 18:39:00,,0831.2,5.00,0.00,30.4,28.7,00.0,39.0,32.0,34.3,-000.1,0013.76,0009.24,0008.41
2022-07-24 18:40:00,,0831.2,5.01,0.00,30.4,28.6,00.0,39.0,32.0,34.6,-000.5,0013.69,0009.17,0008.33
2022-07-24 18:41:00,,0831.2,4.99,0.00,30.4,28.0,00.0,38.9,32.0,34.4,-000.4,0013.77,0009.08,0008.22
2022-07-24 18:42:00,,0831.2,5.01,0.00,30.3,27.5,00.0,38.9,31.9,33.3,-000.6,0013.63,0008.93,0008.09
2022-07-24 18:43:00,,0831.2,5.00,0.00,30.3,27.3,00.0,38.9,31.7,33.7,-000.7,0013.38,0008.87,0008.00
2022-07-24 18:44:00,,0831.2,5.02,0.00,30.2,27.3,00.0,38.9,31.6,33.9,-000.7,0013.14,0008.84,0007.96
2022-07-24 18:45:00,,0831.2,5.00,0.00,30.1,27.5,00.0,38.8,31.6,34.1,-000.9,0012.99,0008.78,0007.92
2022-07-24 18:46:00,,0831.2,5.00,0.00,30.1,27.7,00.0,38.8,31.6,34.9,-000.7,0012.90,0008.71,0007.88
2022-07-24 18:47:00,,0831.1,5.01,0.00,30.1,27.9,00.0,38.8,31.7,34.5,-000.4,0013.01,0008.58,0007.83
2022-07-24 18:48:00,,0831.2,4.98,0.00,30.2,28.0,00.0,38.8,31.7,34.5,-000.6,0012.88,0008.50,0007.76
2022-07-24 18:49:00,,0831.2,5.00,0.00,30.2,28.2,00.0,38.8,31.8,34.5,-000.9,0012.91,0008.44,0007.66
2022-07-24 18:50:00,,0831.2,5.00,0.00,30.3,28.4,00.0,38.8,31.9,34.3,-000.5,0012.79,0008.36,0007.58
2022-07-24 18:51:00,,0831.1,5.00,0.00,30.3,28.5,00.0,38.8,31.9,33.5,-000.7,0012.66,0008.24,0007.46
2022-07-24 18:52:00,,0831.2,4.99,0.00,30.3,28.6,00.0,38.9,32.0,34.0,-000.7,0012.48,0008.16,0007.38
2022-07-24 18:53:00,,0831.2,5.00,0.00,30.4,28.5,00.0,38.9,32.0,33.7,-000.3,0012.34,0008.09,0007.31
2022-07-24 18:54:00,,0831.2,5.01,0.00,30.3,27.8,00.0,38.8,31.9,34.4,-000.2,0012.08,0007.98,0007.22
2022-07-24 18:55:00,,0831.2,5.00,0.00,30.4,27.4,00.0,38.8,31.8,34.7,-000.3,0011.86,0007.86,0007.12
2022-07-24 18:56:00,,0831.2,4.99,0.00,30.4,27.3,00.0,38.8,31.7,34.0,-000.8,0011.89,0007.80,0007.07
2022-07-24 18:57:00,,0831.2,5.01,0.00,30.3,27.4,00.0,38.8,31.6,34.6,-001.0,0012.10,0007.82,0007.06
2022-07-24 18:58:00,,0831.2,5.00,0.00,30.3,27.5,00.0,38.8,31.6,34.2,-001.1,0012.77,0007.83,0007.03
2022-07-24 18:59:00,,0831.1,4.99,0.00,30.2,27.7,00.0,38.8,31.6,34.7,-000.9,0013.32,0007.79,0007.01
